Harrison Park (222) Station Data

Red Flag Warning: Yes
Fire Weather Zone: 258
SDGE Region: Ramona
Lat/Lon: 33.04/-116.561

Observations

Time Wind Speed/Gust Temp(F) RH Fuel Moist Fuel Temp(F) Dewpt(F) Tmax(F) Tmin(F) Accum Precip 10-min Precip SL Press(mb)
6/27 5:00pm 256 28 G 38 76° 19% - - 31° 80.6° 68.1° - - 1007.0
6/27 4:50pm 256 29 G 39 77° 18% - - 31° 80.6° 68.1° - - 1007.0
6/27 4:40pm 249 28 G 38 77° 18% - - 31° 80.6° 68.1° - - 1007.0
6/27 4:30pm 252 29 G 40 77° 19% - - 31° 80.6° 68.1° - - 1007.0
6/27 4:20pm 247 28 G 39 77° 19% - - 32° 80.6° 68.1° - - 1007.0
6/27 4:10pm 252 29 G 38 77° 19% - - 31° 80.6° 68.1° - - 1007.0
6/27 4:00pm 253 30 G 39 77° 19% - - 31° 80.6° 68.1° - - 1007.0
6/27 3:50pm 254 29 G 39 78° 19% - - 32° 80.6° 68.1° - - 1007.0
6/27 3:40pm 253 30 G 38 78° 19% - - 32° 80.6° 68.1° - - 1007.0
6/27 3:30pm 251 32 G 42 78° 18% - - 31° 80.6° 68.1° - - 1007.0
6/27 3:20pm 252 31 G 39 78° 18% - - 32° 80.6° 68.1° - - 1007.0
6/27 3:10pm 253 30 G 41 78° 19% - - 32° 80.6° 68.1° - - 1007.0
6/27 3:00pm 250 29 G 40 79° 18% - - 32° 80.6° 68.1° - - 1007.0
6/27 2:50pm 251 28 G 38 79° 18% - - 33° 80.6° 68.1° - - 1007.0
6/27 2:40pm 255 29 G 39 79° 17% - - 31° 80.6° 68.1° - - 1007.0
6/27 2:30pm 254 28 G 38 80° 14% - - 26° 80.6° 68.1° - - 1007.0
6/27 2:20pm 261 29 G 42 80° 12% - - 23° 80.6° 68.1° - - 1007.0
6/27 2:10pm 258 30 G 41 80° 11% - - 21° 80.5° 68.1° - - 1007.0
6/27 2:00pm 255 29 G 42 80° 12% - - 22° 80.5° 68.1° - - 1007.0
6/27 1:50pm 254 32 G 44 79° 12% - - 22° 80.5° 68.1° - - 1007.0
6/27 1:40pm 256 31 G 44 79° 12% - - 22° 80.5° 68.1° - - 1007.0
6/27 1:30pm 256 31 G 43 80° 11% - - 21° 80.4° 68.1° - - 1007.0
6/27 1:20pm 257 30 G 39 80° 11% - - 21° 80.4° 68.1° - - 1007.0
6/27 1:10pm 255 32 G 40 80° 11% - - 20° 80.4° 68.1° - - 1007.0
6/27 1:00pm 254 31 G 44 79° 11% - - 20° 80.4° 68.1° - - 1007.0
6/27 12:50pm 254 33 G 42 79° 11% - - 19° 79.4° 68.1° - - 1007.0
6/27 12:40pm 255 33 G 44 79° 11% - - 19° 79.3° 68.1° - - 1007.0
6/27 12:30pm 258 32 G 44 79° 11% - - 20° 79.3° 68.1° - - 1007.0
6/27 12:20pm 254 33 G 43 78° 11% - - 20° 79.3° 68.1° - - 1007.0
6/27 12:10pm 256 32 G 45 78° 11% - - 20° 78.8° 68.1° - - 1008.0
6/27 12:00pm 256 34 G 44 78° 11% - - 20° 78.5° 68.1° - - 1008.0
6/27 11:50am 252 34 G 44 78° 12% - - 21° 78.1° 68.1° - - 1008.0
6/27 11:40am 253 34 G 43 77° 11% - - 19° 77.7° 68.1° - - 1008.0
6/27 11:30am 254 33 G 42 77° 12% - - 20° 77.7° 68.1° - - 1008.0
6/27 11:20am 253 32 G 43 77° 12% - - 20° 77.7° 68.1° - - 1008.0
6/27 11:10am 257 32 G 40 77° 12% - - 20° 77.4° 68.1° - - 1008.0
6/27 11:00am 257 33 G 42 76° 12% - - 20° 76.8° 68.1° - - 1008.0
6/27 10:50am 259 32 G 40 76° 12% - - 20° 76.8° 68.1° - - 1009.0
6/27 10:40am 257 31 G 39 76° 12% - - 21° 76.5° 68.1° - - 1009.0
6/27 10:30am 257 28 G 38 76° 13% - - 21° 76.5° 68.1° - - 1009.0
6/27 10:20am 257 29 G 36 76° 13% - - 21° 76.1° 68.1° - - 1009.0
6/27 10:10am 257 29 G 36 75° 13% - - 21° 75.8° 68.1° - - 1009.0
6/27 10:00am 253 26 G 32 75° 13% - - 21° 75.6° 68.1° - - 1009.0
6/27 9:50am 253 25 G 31 75° 13% - - 20° 75.5° 68.1° - - 1009.0
6/27 9:40am 257 26 G 32 75° 12% - - 19° 74.9° 68.1° - - 1010.0
6/27 9:30am 254 25 G 31 74° 12% - - 19° 74.6° 68.1° - - 1010.0
6/27 9:20am 255 24 G 31 74° 12% - - 19° 74.3° 68.1° - - 1010.0
6/27 9:10am 255 22 G 29 74° 13% - - 19° 74.2° 68.1° - - 1010.0
6/27 8:50am 257 24 G 32 73° 12% - - 18° 73.7° 68.1° - - 1010.0
6/27 8:40am 257 24 G 31 73° 12% - - 17° 73.2° 68.1° - - 1010.0
6/27 8:30am 255 24 G 32 73° 12% - - 17° 73.1° 68.1° - - 1010.0
6/27 8:20am 256 24 G 31 72° 12% - - 16° 72.5° 68.1° - - 1010.0
6/27 8:10am 254 21 G 28 72° 12% - - 17° 72.1° 68.1° - - 1010.0
6/27 8:00am 253 21 G 27 71° 12% - - 16° 71.6° 68.1° - - 1011.0
6/27 7:50am 253 20 G 26 71° 12% - - 16° 71.4° 68.1° - - 1011.0
6/27 7:40am 255 20 G 25 71° 12% - - 15° 71.4° 68.1° - - 1011.0
6/27 7:30am 256 20 G 27 71° 12% - - 15° 71.4° 68.1° - - 1011.0
6/27 7:20am 255 19 G 24 70° 12% - - 15° 71.4° 68.1° - - 1011.0
6/27 7:10am 254 19 G 26 70° 12% - - 15° 71.4° 68.1° - - 1011.0
6/27 7:00am 255 20 G 29 70° 12% - - 15° 71.4° 68.1° - - 1011.0
6/27 6:50am 257 21 G 26 70° 12% - - 14° 71.4° 68.1° - - 1011.0
6/27 6:40am 259 22 G 28 70° 12% - - 14° 71.4° 68.1° - - 1011.0
6/27 6:30am 257 23 G 30 70° 11% - - 14° 71.4° 68.1° - - 1010.0
6/27 6:20am 257 25 G 33 70° 11% - - 13° 71.4° 68.1° - - 1010.0
6/27 6:10am 260 25 G 31 69° 12% - - 14° 71.4° 68.1° - - 1010.0
6/27 6:00am 259 24 G 33 69° 12% - - 14° 71.4° 68.1° - - 1010.0
6/27 5:50am 258 25 G 32 69° 12% - - 14° 71.4° 68.1° - - 1010.0
6/27 5:40am 257 24 G 30 69° 12% - - 14° 71.4° 68.1° - - 1010.0
6/27 5:30am 257 24 G 31 69° 12% - - 14° 71.4° 68.2° - - 1010.0
6/27 5:20am 257 25 G 31 69° 12% - - 14° 71.4° 68.3° - - 1010.0
6/27 5:10am 256 24 G 32 69° 11% - - 13° 71.4° 68.4° - - 1010.0
6/27 5:00am 255 25 G 33 69° 12% - - 14° 71.4° 68.7° - - 1010.0
6/27 4:50am 255 25 G 32 69° 12% - - 14° 71.4° 68.8° - - 1010.0
6/27 4:40am 256 25 G 33 70° 12% - - 15° 71.4° 69° - - 1010.0
6/27 4:30am 256 28 G 34 70° 12% - - 15° 71.4° 69° - - 1010.0
6/27 4:20am 255 28 G 36 70° 12% - - 16° 71.4° 69° - - 1009.0
6/27 4:10am 256 27 G 32 70° 13% - - 16° 71.4° 69° - - 1010.0
6/27 4:00am 255 27 G 34 70° 13% - - 16° 71.4° 69° - - 1010.0
6/27 3:50am 256 29 G 35 69° 13% - - 16° 71.4° 69° - - 1010.0
6/27 3:40am 256 28 G 36 70° 13% - - 16° 71.4° 69.2° - - 1009.0
6/27 3:30am 256 28 G 36 70° 13% - - 16° 71.4° 69.3° - - 1009.0
6/27 3:20am 256 30 G 37 70° 13% - - 17° 71.4° 69.3° - - 1009.0
6/27 3:10am 255 29 G 36 70° 13% - - 17° 71.4° 69.3° - - 1009.0
6/27 3:00am 255 28 G 37 70° 13% - - 17° 71.4° 69.3° - - 1009.0
6/27 2:50am 256 30 G 37 70° 13% - - 17° 71.4° 69.3° - - 1009.0
6/27 2:40am 256 30 G 37 70° 13% - - 16° 71.4° 69.3° - - 1009.0
6/27 2:30am 256 30 G 39 70° 13% - - 16° 71.4° 69.3° - - 1009.0
6/27 2:20am 256 31 G 39 71° 12% - - 16° 71.4° 69.3° - - 1009.0
6/27 2:10am 256 30 G 40 70° 13% - - 16° 71.4° 69.3° - - 1009.0
6/27 2:00am 256 30 G 39 71° 12% - - 16° 71.4° 69.3° - - 1009.0
6/27 1:50am 256 31 G 39 71° 12% - - 16° 71.4° 69.3° - - 1009.0
6/27 1:40am 256 30 G 39 71° 12% - - 16° 71.4° 69.3° - - 1009.0
6/27 1:30am 255 31 G 37 71° 12% - - 16° 71.4° 69.3° - - 1009.0
6/27 1:20am 256 31 G 39 71° 12% - - 16° 71.4° 69.3° - - 1009.0
6/27 1:10am 256 31 G 39 71° 12% - - 15° 71.2° 69.3° - - 1010.0
6/27 1:00am 258 30 G 37 71° 11% - - 15° 71.1° 69.3° - - 1010.0
6/27 12:50am 256 29 G 35 71° 11% - - 13° 71.1° 69.3° - - 1010.0
6/27 12:40am 258 26 G 33 70° 11% - - 13° 71.1° 69.3° - - 1011.0
6/27 12:30am 256 25 G 33 70° 11% - - 12° 71.1° 69.3° - - 1011.0
6/27 12:20am 259 22 G 31 70° 10% - - 12° 71.1° 69.6° - - 1011.0
6/27 12:10am 259 22 G 29 70° 11% - - 12° 70.5° 69.6° - - 1011.0
6/27 12:00am 260 25 G 36 71° 10% - - 12° 86.4° 69.7° - - 1010.0
6/26 11:50pm 260 26 G 38 71° 11% - - 13° 86.4° 69.7° - - 1010.0
6/26 11:40pm 257 27 G 35 70° 12% - - 15° 86.4° 69.7° - - 1010.0
6/26 11:30pm 258 29 G 39 70° 12% - - 15° 86.4° 70° - - 1010.0
6/26 11:20pm 259 32 G 42 71° 12% - - 15° 86.4° 70.3° - - 1010.0
6/26 11:10pm 259 32 G 41 71° 12% - - 15° 86.4° 70.5° - - 1010.0
6/26 11:00pm 259 31 G 42 71° 12% - - 15° 86.4° 70.6° - - 1010.0
6/26 10:50pm 260 30 G 41 71° 12% - - 15° 86.4° 70.8° - - 1010.0
6/26 10:40pm 261 30 G 39 72° 12% - - 15° 86.4° 70.8° - - 1011.0
6/26 10:30pm 260 30 G 37 72° 12% - - 15° 86.4° 70.8° - - 1011.0
6/26 10:20pm 259 28 G 35 72° 11% - - 15° 86.4° 70.8° - - 1011.0
6/26 10:10pm 258 26 G 33 72° 12% - - 16° 86.4° 70.8° - - 1011.0
6/26 10:00pm 260 24 G 29 71° 12% - - 16° 86.4° 70.8° - - 1012.0
6/26 9:50pm 260 22 G 28 72° 11% - - 15° 86.4° 70.8° - - 1012.0
6/26 9:40pm 259 21 G 27 72° 11% - - 15° 86.4° 70.8° - - 1012.0
6/26 9:30pm 256 20 G 26 71° 12% - - 16° 86.4° 70.8° - - 1012.0
6/26 9:20pm 257 17 G 21 71° 12% - - 17° 86.4° 70.8° - - 1012.0
6/26 9:10pm 257 16 G 21 71° 13% - - 17° 86.4° 70.9° - - 1012.0
6/26 9:00pm 256 15 G 20 72° 13% - - 18° 86.4° 71.4° - - 1012.0
6/26 8:50pm 259 13 G 16 72° 13% - - 19° 86.4° 71.6° - - 1012.0
6/26 8:40pm 262 12 G 16 72° 13% - - 19° 86.4° 71.8° - - 1012.0
6/26 8:30pm 263 12 G 16 73° 13% - - 20° 86.4° 72.4° - - 1012.0
6/26 8:20pm 261 13 G 17 73° 13% - - 20° 86.4° 72.6° - - 1012.0
6/26 8:10pm 253 13 G 17 74° 13% - - 19° 86.4° 73.2° - - 1012.0
6/26 8:00pm 254 15 G 22 74° 12% - - 19° 86.4° 73.8° - - 1011.0
6/26 7:50pm 252 14 G 19 75° 12% - - 19° 86.4° 74.6° - - 1011.0
6/26 7:40pm 253 16 G 22 76° 11% - - 18° 86.4° 75.3° - - 1011.0
6/26 7:30pm 252 17 G 24 77° 10% - - 17° 86.4° 75.6° - - 1011.0
6/26 7:20pm 252 18 G 25 77° 10% - - 17° 86.4° 75.6° - - 1010.0
6/26 7:10pm 252 18 G 26 78° 10% - - 16° 86.4° 75.6° - - 1010.0
6/26 7:00pm 255 19 G 26 78° 10% - - 17° 86.4° 75.6° - - 1010.0
6/26 6:50pm 257 19 G 25 79° 10% - - 17° 86.4° 75.6° - - 1010.0
6/26 6:40pm 254 20 G 27 79° 9% - - 16° 86.4° 75.6° - - 1010.0
6/26 6:30pm 255 20 G 27 80° 9% - - 16° 86.4° 75.6° - - 1010.0
6/26 6:20pm 254 20 G 26 80° 9% - - 17° 86.4° 75.6° - - 1010.0
6/26 6:10pm 260 18 G 25 81° 10% - - 19° 86.4° 75.6° - - 1010.0
6/26 6:00pm 255 19 G 26 81° 10% - - 20° 86.4° 75.6° - - 1010.0
6/26 5:50pm 255 18 G 26 81° 11% - - 22° 86.4° 75.6° - - 1009.0
6/26 5:40pm 260 18 G 25 82° 11% - - 22° 86.4° 75.6° - - 1010.0
6/26 5:30pm 269 17 G 25 82° 11% - - 22° 86.4° 75.6° - - 1010.0
6/26 5:20pm 257 18 G 27 83° 11% - - 23° 86.4° 75.6° - - 1010.0
6/26 5:10pm 272 19 G 28 83° 11% - - 23° 86.4° 75.6° - - 1010.0
6/26 5:00pm 257 19 G 27 83° 11% - - 24° 86.4° 75.6° - - 1010.0
6/26 4:50pm 257 19 G 28 83° 11% - - 24° 86.4° 75.6° - - 1010.0
6/26 4:40pm 258 21 G 29 83° 11% - - 24° 86.4° 75.6° - - 1010.0
6/26 4:30pm 265 19 G 27 83° 11% - - 23° 86.4° 75.6° - - 1010.0
6/26 4:20pm 274 20 G 31 84° 11% - - 24° 86.4° 75.6° - - 1010.0
6/26 4:10pm 273 20 G 30 84° 12% - - 25° 86.4° 75.6° - - 1010.0
6/26 4:00pm 271 20 G 28 84° 11% - - 24° 86.4° 75.6° - - 1010.0
6/26 3:50pm 272 19 G 27 84° 12% - - 25° 86.4° 75.6° - - 1010.0
6/26 3:40pm 276 20 G 27 84° 11% - - 25° 86.4° 75.6° - - 1010.0
6/26 3:30pm 273 21 G 28 84° 11% - - 24° 86.4° 75.6° - - 1010.0
6/26 3:20pm 270 20 G 30 84° 12% - - 25° 86.4° 75.6° - - 1010.0
6/26 3:10pm 269 22 G 30 84° 12% - - 25° 86.4° 75.6° - - 1010.0
6/26 3:00pm 263 19 G 25 85° 11% - - 25° 86.4° 75.6° - - 1010.0
6/26 2:50pm 259 19 G 27 85° 11% - - 26° 86.4° 75.6° - - 1010.0
6/26 2:40pm 262 19 G 29 85° 11% - - 25° 86.4° 75.6° - - 1010.0
6/26 2:30pm 251 21 G 29 84° 11% - - 25° 86.4° 75.6° - - 1010.0
6/26 2:20pm 258 20 G 28 85° 11% - - 26° 86.4° 75.6° - - 1010.0
6/26 2:10pm 264 19 G 27 85° 12% - - 26° 86.4° 75.6° - - 1010.0
6/26 2:00pm 269 18 G 28 85° 12% - - 27° 86.4° 75.6° - - 1010.0
6/26 1:50pm 265 18 G 31 86° 12% - - 27° 86.4° 75.6° - - 1010.0
6/26 1:40pm 272 19 G 29 85° 12% - - 26° 86.2° 75.6° - - 1010.0
6/26 1:30pm 256 20 G 29 85° 12% - - 27° 86.2° 75.6° - - 1010.0
6/26 1:20pm 276 18 G 26 85° 11% - - 25° 86.2° 75.6° - - 1010.0
6/26 1:10pm 262 18 G 26 86° 11% - - 26° 86.2° 75.6° - - 1010.0
6/26 1:00pm 261 17 G 23 85° 11% - - 25° 86.2° 75.6° - - 1010.0
6/26 12:50pm 267 16 G 26 86° 12% - - 26° 86.2° 75.6° - - 1010.0
6/26 12:40pm 270 17 G 25 85° 11% - - 25° 85.9° 75.6° - - 1011.0
6/26 12:30pm 279 17 G 27 85° 11% - - 24° 85.9° 75.6° - - 1011.0
6/26 12:20pm 275 19 G 26 84° 11% - - 23° 85.2° 75.6° - - 1011.0
6/26 12:10pm 268 19 G 28 85° 11% - - 24° 85.2° 75.6° - - 1011.0
6/26 12:00pm 274 18 G 29 84° 11% - - 24° 85.2° 75.6° - - 1011.0
6/26 11:50am 272 20 G 25 84° 11% - - 24° 85.2° 75.6° - - 1011.0
6/26 11:40am 276 20 G 28 84° 11% - - 24° 85.2° 75.6° - - 1011.0
6/26 11:30am 269 18 G 26 84° 12% - - 25° 84.8° 75.6° - - 1011.0
6/26 11:20am 268 19 G 25 84° 12% - - 25° 84.5° 75.6° - - 1011.0
6/26 11:10am 271 19 G 26 84° 12% - - 25° 84.2° 75.6° - - 1011.0
6/26 11:00am 281 19 G 28 83° 12% - - 25° 83.7° 75.6° - - 1011.0
6/26 10:50am 268 18 G 26 83° 12% - - 25° 83.7° 75.6° - - 1011.0
6/26 10:40am 276 18 G 29 83° 12% - - 25° 83.6° 75.6° - - 1011.0
6/26 10:30am 271 18 G 26 83° 12% - - 25° 83.3° 75.6° - - 1011.0
6/26 10:20am 269 17 G 25 83° 12% - - 26° 83.1° 75.6° - - 1011.0
6/26 10:10am 269 16 G 23 83° 13% - - 27° 83.1° 75.6° - - 1011.0
6/26 10:00am 275 16 G 22 82° 13% - - 26° 82.7° 75.6° - - 1011.0
6/26 9:50am 268 17 G 24 82° 13% - - 26° 82.4° 75.6° - - 1011.0
6/26 9:40am 269 15 G 21 82° 13% - - 27° 82.1° 75.6° - - 1011.0
6/26 9:30am 272 13 G 19 82° 13% - - 27° 82.1° 75.6° - - 1011.0
6/26 9:20am 274 14 G 20 81° 14% - - 27° 81.7° 75.6° - - 1011.0
6/26 9:10am 272 15 G 21 81° 13% - - 26° 81.3° 75.6° - - 1011.0
6/26 9:00am 269 12 G 17 81° 15% - - 29° 81° 75.6° - - 1011.0
6/26 8:50am 269 13 G 18 81° 15% - - 28° 80.8° 75.6° - - 1012.0
6/26 8:40am 266 12 G 17 80° 15% - - 29° 80.4° 75.6° - - 1012.0
6/26 8:30am 267 11 G 14 79° 16% - - 29° 80° 75.6° - - 1012.0
6/26 8:20am 270 10 G 14 79° 16% - - 28° 79.4° 75.6° - - 1012.0
6/26 8:10am 268 10 G 12 78° 15% - - 26° 79.4° 75.6° - - 1012.0
6/26 8:00am 269 10 G 12 78° 14% - - 25° 79.4° 75.6° - - 1012.0
6/26 7:50am 270 10 G 13 78° 14% - - 25° 79.4° 75.6° - - 1012.0
6/26 7:40am 271 11 G 15 78° 14% - - 24° 79.4° 75.6° - - 1012.0
6/26 7:30am 273 11 G 14 77° 14% - - 24° 79.4° 75.6° - - 1012.0
6/26 7:20am 273 11 G 14 77° 14% - - 24° 79.4° 75.6° - - 1012.0
6/26 7:10am 271 11 G 13 77° 13% - - 23° 79.4° 75.6° - - 1012.0
6/26 7:00am 272 11 G 14 77° 13% - - 23° 79.4° 75.6° - - 1012.0
6/26 6:50am 275 11 G 14 77° 13% - - 23° 79.4° 75.6° - - 1012.0
6/26 6:40am 277 13 G 20 78° 12% - - 22° 79.4° 75.6° - - 1011.0
6/26 6:30am 282 15 G 22 79° 12% - - 22° 79.4° 75.6° - - 1011.0
6/26 6:20am 281 15 G 22 79° 12% - - 22° 79.4° 75.6° - - 1011.0
6/26 6:10am 281 15 G 22 78° 13% - - 23° 79.1° 75.6° - - 1011.0
6/26 6:00am 282 14 G 19 78° 14% - - 25° 78.7° 75.6° - - 1011.0